272  
ASUS41 KALY 271110  
RWRALY  
 
NEW YORK STATE HOURLY WEATHER ROUNDUP  
NATIONAL WEATHER SERVICE ALBANY NY  
600 AM EST THU FEB 27 2020  
 
NOTE: "FAIR" INDICATES FEW OR NO CLOUDS BELOW 12,000 FEET WITH NO  
SIGNIFICANT WEATHER AND/OR NO S TO VISIBILITY
.  
 
NYZ032-033-038>043-046>054-057>066-NYZ062>081-082-084-271200-  
EAST  
 
 
CITY SKY/WX TMP DP RH WIND PRES REMARKS
 
ALBANY LGT RAIN 40 36 86 W14 29.26F WCI 32  
GLENS FALLS LGT RAIN 39 35 86 NE12 29.25F WCI 32  
POUGHKEEPSIE CLOUDY 45 42 89 SW5 29.26F  
NEWBURGH CLOUDY 45 43 93 W15 29.29S  
MONTGOMERY LGT RAIN 40 38 93 W10 29.29S WCI 33  
WHITE PLAINS LGT RAIN 43 41 93 W9G23 29.28R FOG  
ISLIP LGT RAIN 47 47 100 SW17G24 29.29S FOG  
NEW YORK CITY DRIZZLE 45 41 86 W14G23 29.29F  
CENTRAL PARK CLOUDY 43 42 97 VRB7 29.34R  

 
 
NYZ005>009-017-018-044>046-055-056-271200-  
CENTRAL  
 
 
CITY SKY/WX TMP DP RH WIND PRES REMARKS
 
FULTON LGT SNOW 31 28 89 W16G22 29.38S VSB 3/4 WCI 20  
SYRACUSE LGT SNOW 32 29 88 W15 29.38S FOG WCI 22  
ROME LGT SNOW 34 31 88 W14 29.34S FOG WCI 25  
ELMIRA LGT SNOW 31 30 96 W21G33 29.42R FOG WCI 18  
BINGHAMTON LGT SNOW 31 30 96 W17G29 29.31R VSB 3/4 WCI 19  
MONTICELLO FLURRIES 34 34 100 W9 29.31S WCI 27  

 
 
NYZ026>034-041>043-087-271200-  
NORTH  
 
 
CITY SKY/WX TMP DP RH WIND PRES REMARKS
 
WATERTOWN SNOW 33 31 92 SW16G24 29.34S VSB 1/2 WCI 23  
FORT DRUM NOT AVBL  
OGDENSBURG LGT RAIN 34 34 100 NE7 29.29F WCI 28  
MASSENA RAIN 36 32 85 NE12 29.33F FOG WCI 28  
SARANAC LAKE MIX PCPN 37 32 82 E9G18 29.23F WCI 30  
PLATTSBURGH MIX PCPN 32 31 96 N3 29.35F FOG  

 
 
NYZ001>004-010>016-019>021-085-271200-  
WEST  
 
 
CITY SKY/WX TMP DP RH WIND PRES REMARKS
 
NIAGARA FALLS LGT SNOW 22 19 89 W22G32 29.54R VSB 3/4 WCI 6  
BUFFALO LGT SNOW 23 19 85 W20G29 29.53R FOG WCI 8  
DUNKIRK LGT SNOW 26 20 77 W17G29 29.63S VSB 1 WCI 13  
JAMESTOWN LGT SNOW 21 19 92 W15G28 29.57R VSB 3/4 WCI 8  
WELLSVILLE LGT SNOW 22 18 85 W21G33 29.45R FOG WCI 6  
ROCHESTER LGT SNOW 27 21 78 W23G35 29.44R BLWGSNOWWCI 12  
PENN YAN LGT SNOW 30 24 78 SW17 29.40S WCI 18  

 
 
KEY  
WCI = WIND CHILL INDEX  
VSB = VISIBILITY  
HX = HEAT INDEX  

 
 
 
CLICK HERE TO GO TO PREVIOUS BULLETINS.

The Nexlab NY Page
The Nexlab VT Page
The Nexlab MA Page
The Nexlab CT Page Main Text Page